Regional Weather Roundup
Issued by NWS Wakefield, VA

Home | Current Version | Previous Version | Graphics & Text | Print | Product List | Glossary On
Versions: 1 2 3 4 5 6 7 8 9 10 11 12 13 14 15 16 17 18 19 20 21 22 23 24 25 26 27 28 29 30 31 32 33 34 35 36 37 38 39 40 41 42 43 44 45 46 47 48 49 50
021
ASUS41 KAKQ 281415
RWRAKQ

REGIONAL WEATHER ROUNDUP
NATIONAL WEATHER SERVICE WAKEFIELD VA
1000 AM EDT SAT MAY 28 2016

Note: "fair" indicates few or no clouds below 12,000 feet with no
significant weather and/or obstructions to visibility. * = Denotes
station may not report precipitation (e.g., rain,snow,etc.),
thunder or fog.

VAZ042-051-052>054-056-281500-
NORTHERN VIRGINIA

CITY           SKY/WX    TMP DP  RH WIND       PRES   REMARKS
WASH NATIONAL  FAIR      76  65  68 S12       30.17R
DULLES         FAIR      77  65  66 S5        30.16S
FORT BELVOIR   FAIR      77  65  65 VRB2      30.17R
QUANTICO       FAIR      75  65  70 S10       30.17S
FREDERICKSBRG* FAIR      78  65  64 S5        30.16F
STAFFORD*      FAIR      77  64  63 SW3       30.20F
WARRENTON      FAIR      80  62  54 SW3       30.16S
CULPEPER*      FAIR      79  68  67 S3        30.17S
MANASSAS*      SUNNY     79  66  65 S5        30.16
LEESBURG*      FAIR      81  72  74 SW5       30.17F
WINCHESTER     FAIR      79  68  69 SW5       30.17S
FRONT ROYAL*   PTSUNNY   77  70  78 CALM      30.16S
LURAY*         FAIR      79  68  69 SW3       30.17F
$$

VAZ048-049-060>072-079>083-281500-
CENTRAL AND SOUTH CENTRAL VIRGINIA

CITY           SKY/WX    TMP DP  RH WIND       PRES   REMARKS
RICHMOND       FAIR      75  62  64 SW7       30.19S
CHESTERFIELD*  FAIR      77  55  47 SW5       30.20F
PETERSBURG*    FAIR      78  64  61 CALM      30.20F
HANOVER        FAIR      79  60  52 S6        30.19F
TAPPAHANNOCK*  FAIR      79  61  54 S6        30.20S
QUINTON*       FAIR      75  63  65 SW5       30.19S
CHARLOTTSVILLE FAIR      78  67  68 S3        30.17R
GORDONSVILLE*  FAIR      77  67  71 SW3       30.16S
ORANGE*        FAIR      79  68  69 NE3       30.18S
LOUISA*        FAIR      81  68  65 CALM      30.17S
BUMPASS*       FAIR      76  65  68 CALM      30.18S
FARMVILLE*     FAIR      78  63  61 S7        30.17S
CREWE*         FAIR      75  64  67 CALM      30.19F
FORT PICKETT*  NOT AVBL
CHASE CITY*    FAIR      74  61  62 CALM      30.20S
CLARKSVILLE*   FAIR      73  63  68 SW5       30.20R
SOUTH HILL*    FAIR      74  64  71 S3        30.25F
LAWRENCEVILLE* FAIR      74  64  70 CALM      30.20S
EMPORIA*       FAIR     N/A N/A N/A CALM      30.21F
$$

VAZ088>098-281500-
SOUTHEAST VIRGINIA

CITY           SKY/WX    TMP DP  RH WIND       PRES   REMARKS
NORFOLK        FAIR      77  60  55 VRB3      30.20S
VIRGINIA BEACH FAIR      83  62  49 SW6       30.19S
NORFOLK NAVAL  FAIR      77  61  57 SW5       30.21S
WEST POINT*    FAIR      76  62  60 CALM      30.21S
SALUDA*        FAIR      77  64  63 SW3       30.20R
NEWPORT NEWS   FAIR      76  64  66 SW7       30.20S
LANGLEY AFB    FAIR      76  64  65 S6        30.20S
FORT EUSTIS    FAIR      75  63  65 VRB3      30.19R
WILLIAMSBURG*  FAIR      79  64  61 S3        30.20F
HR EXEC AP*    FAIR      77  64  65 SW3       30.22S
FRANKLIN*      FAIR      76  63  64 SW3       30.20F
US460-WAKEFLD  FAIR      76  61  59 VRB3      30.20S
$$

VAZ020-022-025-037-045-281500-
WEST CENTRAL AND SOUTHWEST VIRGINIA

CITY           SKY/WX    TMP DP  RH WIND       PRES   REMARKS
STAUNTON*      FAIR      75  68  77 S5        30.21S
WAYNESBORO*    FAIR      77  65  66 CALM      30.21R
HOT SPRINGS VA FAIR      69  60  74 W6        30.30R
LYNCHBURG      FAIR      75  64  68 S3        30.21R
DANVILLE       FAIR      74  62  66 CALM      30.20R
SOUTH BOSTON*  FAIR      75  63  65 CALM      30.20R
MARTINSVILLE   FAIR      74  60  61 CALM      30.22S
ROANOKE        FAIR      76  64  66 SE3       30.22R
BLACKSBURG     FAIR      73  64  74 CALM      30.28R
DUBLIN*        FAIR      73  67  82 CALM      30.26R
MARION*        PTSUNNY   70  64  81 CALM      30.28S
HILLSVILLE*    FAIR      71  62  73 CALM      30.26R
RICHLANDS*     FAIR      73  66  78 S5        30.25R
WISE*          FAIR      72  54  53 S7        30.25R
ABINGDON*      FAIR      75  62  64 CALM      30.23R
$$

MDZ021>025-VAZ099-100-281500-
SOUTHERN MARYLAND AND THE DELMARVA PENINSULA

CITY           SKY/WX    TMP DP  RH WIND       PRES   REMARKS
PATUXENT RIVER MOSUNNY   78  61  55 S7        30.18R
BAY BRIDGE APT SUNNY     77  63  61 S7        30.17S
LEONARDTOWN    SUNNY     77  61  57 SW7       30.19S
DOVER          SUNNY     79  67  66 S7        30.17R
GEORGETOWN     SUNNY     78  64  61 SW9       30.19S
EASTON         SUNNY     81  66  61 SW9       30.21R
CAMBRIDGE      SUNNY     75  63  64 S6        30.18R
SALISBURY      SUNNY     78  63  59 S10       30.19S
OCEAN CITY     PTSUNNY   71  64  78 S8        30.20S
WALLOPS ISLAND PTSUNNY   75  66  73 S9        30.22R
ACCOMACK*      FAIR      79  59  50 CALM      30.21R
$$

NCZ012>017-030>032-281500-
NORTH CENTRAL AND EASTERN NORTH CAROLINA

CITY           SKY/WX    TMP DP  RH WIND       PRES   REMARKS
ROANOKE RAPIDS FAIR      75  63  64 S3        30.20S
RALEIGH        MOSUNNY   75  61  61 VRB3      30.20R
ELIZABETH CITY MOSUNNY   77  67  71 SE6       30.21R
AHOSKIE*       SUNNY     74  66  75 S3        30.20F
EDENTON*       SUNNY    N/A N/A N/A SE6       30.21S
CURRITUCK*     SUNNY     78  65  65 E5        30.21S
KILL DEVIL HLS SUNNY     78  66  67 NE5       30.20R
MANTEO         NOT AVBL
CAPE HATTERAS  MOSUNNY   80  69  69 SE10      30.19R
TARBORO*       FAIR      77  67  71 CALM      30.21S
GOLDSBORO      PTSUNNY  N/A N/A N/A MISG        N/A
WASHINGTON     SUNNY     77  68  72 CALM      30.19F
GREENVILLE     SUNNY     77  68  73 E8        30.20S
NEW BERN       MOSUNNY   79  68  69 E7        30.18S
WILMINGTON     MOSUNNY   79  68  69 E13       30.16R
$$

VAZ048-281500-
ELSEWHERE

CITY           SKY/WX    TMP DP  RH WIND       PRES   REMARKS
HARRISBURG PA  MOSUNNY   77  68  73 CALM      30.14R HAZE
BALTIMORE      MOSUNNY   79  64  60 W6        30.16R
ANNAPOLIS      SUNNY     71  66  84 E12       30.16R
ANDREWS AFB    FAIR      79  64  59 SW6       30.16S
PHILADELPHIA   MOSUNNY   78  63  59 SW8       30.16S
HENDERSON NC   SUNNY     71  62  72 CALM      30.20S
GREENSBORO     PTSUNNY   76  59  55 CALM      30.19S
ROCKY MOUNT    CLOUDY    76  67  73 VRB5      30.20S
$$

VAZ100-281500-
MARINE

STATION/POSITION TIME  TEMP    WIND        PRES    WAVE   SWELL
                       AIR SEA DIR/SP/G            HT/PER HT/PER
                 (UTC) (F)     (DEG/KT/KT) (MB)    (FT/S) (FT/S)
BRANDYWINE LGT   1300   67                 1022.0R
CAPE MAY NJ      1300   70 67  160/  7/  9 1021.9R
LEWES DE         1300   75 60  220/  5/  8 1022.0R
15NM E FENWICK I 1350   64 61              1022.8R   2/ 7
OCEAN-CITY-INLET 1300   63 65  200/  6/ 11 1023.0R
WACHAPREAGUE VA  1300   73 74  200/  9/ 11 1022.3R
THOMAS POINT MD  1400   69 66  170/ 11/ 12 1022.9R
GOOSES REEF MD   1400   70 67  170/ 10/ 12 1022.7R   1/ 6
COVE POINT MD    1300   67     180/ 10/ 11 1022.3R
SOLOMONS ISLAND  1300   72 65  210/  5/  6   N/A
BISHOPS HEAD MD  1300   72 71  190/  6/  8 1022.4R
PINEY POINT MD   1300           CALM  /  1   N/A
POTOMAC MD       1400   73 69  210/  2/  4 1021.4R   0
CAMBRIDGE MD     1300   74 66  200/  6/  9 1020.8R
LEWISETTA VA     1300   75 63  240/  8/  9 1021.5R
RAPPAHANNOCK LGT 1300          180/  9/ 10 1023.2R
STINGRAY PT      1400   70 70  160/  6/  6 1023.2R   0
YORK RVR RNG VA  1300   71     190/  6/  6 1022.1R
YORKTOWN VA      1300   73 69  220/  8/  9 1022.2R
JAMESTOWN VA     1400   74 73  230/  2/  4   N/A     0
DOMINION TERM VA 1300   72     260/  3/  3 1022.7R
KIPTOPEKE VA     1300      68  170/  3/  4   N/A
CHES BAY BRIDGE  1300   72 69   CALM  /  2 1022.6R
CAPE HENRY VA    1300   74     240/  4/  6   N/A
CHESAPEAKE LGHT  1300   68     160/  7/  7 1023.6R
WILLOUBY STN VA  1300   69     300/  3/  4 1023.6R
CAPE HENRY BUOY  1312      66                N/A     3/ 7
1ST LANDING BUOY 1400   69 69   90/  6/  6 1022.8R   1/ 5
CAPE CHARLES BUO 1326      67                N/A     2/ 8   2/ 7
OFFSHORE WE BUOY 1321      68                N/A     3/ 7   3/ 7
64NM E OF VA BCH 1350   67 62   50/  4/  4 1022.9R   3/ 8   3/ 8
DUCK PIER NC     1300   70 60  100/  5/  6 1022.0R
44100 DUCK FRF   1324      67                N/A     3/ 9
44056 DUCK FRF   1311      64                N/A     2/ 7
OREGON INLET NC  1300   72 71   60/  6/  8 1022.3R
HATTERAS NC      1300   77 74              1021.3R
DIAMOND SHLS NC  1350   77 78  100/ 12/ 14 1021.7R   4/ 8   3/ 8
CAPE LOOKOC1F1C2F2C3F3C4F4C5F5C6F6C7F7C8M1C9!



USA.gov is the U.S. government's official web portal to all federal, state and local government web resources and services.